[Iaude] MPEC A63: 2024 AH1 [a=1.65,e=0.39,i=14.6,H=26.0]

mpec at marsden.cfa.harvard.edu mpec at marsden.cfa.harvard.edu
Sat Jan 6 23:40:30 EST 2024


M.P.E.C. 2024-A63                               Issued 2024 January 7, 04:38 UT

     The Minor Planet Electronic Circulars contain information on unusual
         minor planets, routine data on comets and natural satellites,
         and occasional editorial announcements.  They are published
    on behalf of Division F of the International Astronomical Union by the
          Minor Planet Center, Smithsonian Astrophysical Observatory,
                          Cambridge, MA 02138, U.S.A.
			  
             Prepared using the Tamkin Foundation Computer Network

                              MPC at CFA.HARVARD.EDU
            URL https://www.minorplanetcenter.net/    ISSN 1523-6714

                                    2024 AH1                                    


Observations:
     K24A01H* C2024 01 06.46322307 40 25.606+35 12 48.53         18.07oVEA063T08
     K24A01H  C2024 01 06.49661307 40 44.952+34 45 22.21         18.10oVEA063T08
     K24A01H  C2024 01 06.49992707 40 46.850+34 42 39.78         17.98oVEA063T08
     K24A01H  C2024 01 06.50707707 40 50.928+34 36 44.96         18.21oVEA063T08
     K24A01H  C2024 01 06.64074807 42 12.578+32 45 22.07         19.06oVEA063T05
     K24A01H  C2024 01 06.64120007 42 12.773+32 44 59.57         19.20oVEA063T05
     K24A01H  C2024 01 06.64165307 42 13.104+32 44 38.90         19.05oVEA063T05
     K24A01H  C2024 01 06.64210507 42 13.402+32 44 17.27         19.05oVEA063T05
     K24A01H  C2024 01 06.64255807 42 13.685+32 43 54.19         18.66oVEA063T05
     K24A01H  C2024 01 06.73317 07 43 32.65 +31 29 33.3          18.3 RmEA063P93
     K24A01H  C2024 01 06.73649 07 43 34.53 +31 26 48.3          18.2 RmEA063P93
     K24A01H  C2024 01 06.73758 07 43 35.16 +31 25 54.1          18.2 RmEA063P93
     K24A01H  C2024 01 06.73974 07 43 36.38 +31 24 06.8          18.2 RmEA063P93
     K24A01H KC2024 01 06.78842207 44 40.774+30 40 46.99         18.6 GVEA063J95
     K24A01H KC2024 01 06.79149307 44 42.876+30 38 18.92         18.5 GVEA063J95
     K24A01H KB2024 01 06.89633407 45 51.00 +29 14 25.0          18.3 GXEA063I93
     K24A01H KB2024 01 06.89877107 45 52.40 +29 12 27.3          18.1 GXEA063I93
     K24A01H KB2024 01 06.90114507 45 53.77 +29 10 32.2          18.0 GXEA063I93
     K24A01H KB2024 01 06.99269907 46 44.07 +27 56 32.1          18.4 GXEA063958
     K24A01H KB2024 01 06.99450607 46 45.01 +27 55 04.1          18.3 GXEA063958
     K24A01H KB2024 01 06.99631007 46 45.93 +27 53 36.6          18.4 GXEA063958

Observer details:
958 Observatoire de Dax.  Observer P. Dupouy.  0.50-m f/4.5 Reflector + CMO.
I93 St Pardon de Conques.  Observer F. Losse.  0.40-m f/3.7 reflector + CMO.
J95 Great Shefford.  Observer P. Birtwhistle.  0.41-m f/6.3 Schmidt-Cassegrain
    + CCD.
P93 Space Tracking and Communications Center, JAXA.  Observers S. Okumura, T.
    Fujiwara.  1.0-m f/3.0 reflector + CCD.
T05 ATLAS-HKO, Haleakala.  Observers L. Denneau, R. Siverd, J. Tonry, H.
    Weiland.  Measurers L. Denneau, N. Erasmus, A. Fitzsimmons, A. Lawrence,
    J. Robinson, R. Siverd, J. Tonry, H. Weiland.  0.5-m Reflector + CCD.
T08 ATLAS-MLO, Mauna Loa.  Observers L. Denneau, R. Siverd, J. Tonry, H.
    Weiland.  Measurers L. Denneau, N. Erasmus, A. Fitzsimmons, A. Lawrence,
    J. Robinson, R. Siverd, J. Tonry, H. Weiland.  0.5-m Reflector + CCD.

Orbital elements:
2024 AH1                                                 Earth MOID = 0.0217 AU
Epoch 2023 Sept. 13.0 TT = JDT 2460200.5                Bell                    
M 309.86572              (2000.0)            P               Q                  
n   0.46422254     Peri.  170.13564     -0.12243521     -0.96252745             
a   1.6519056      Node   286.59004     +0.89250860     -0.00014304             
e   0.3931837      Incl.   14.62446     +0.43409448     -0.27118423             
P   2.12           H   26.06          G   0.15           U   7                  
Residuals in seconds of arc
240106 T08  0.1-  0.1-    240106 T05  0.1-  3.3+    240106 J95  0.0   0.0
240106 T08  0.3+  1.0-    240106 T05  0.2-  2.9+    240106 I93  0.1-  0.0
240106 T08  0.1+  0.4+    240106 P93  0.2-  0.0     240106 I93  0.2-  0.2+
240106 T08  0.7-  0.6-    240106 P93  0.2-  0.1-    240106 I93  0.1-  0.1+
240106 T05  0.7+  0.2-    240106 P93  0.1-  0.1-    240106 958  0.3+  0.2+
240106 T05  0.6-  0.0     240106 P93  0.1-  0.1-    240106 958  0.3+  0.2+
240106 T05  0.1-  2.1+    240106 J95  0.1-  0.4-    240106 958  0.0   0.5+

Ephemeris:
2024 AH1                 a,e,i = 1.65, 0.39, 15                  q = 1.0024
Date    TT    R. A. (2000) Decl.     Delta      r    Elong.  Phase     V
2023 12 08    21 31 50.8 +64 26 34   0.1598  1.0297   101.8    69.5    24.6
...
2023 12 23    21 56 24.7 +70 44 50   0.08385 1.0052   102.6    72.8    23.2
...
2023 12 31    01 32 57.1 +80 56 27   0.04344 1.0025   115.0    62.7    21.5
...
2024 01 06    07 34 03.5 +41 26 17   0.02325 1.0052   160.2    19.4    18.9
2024 01 07    07 46 43.0 +27 53 01   0.02310 1.0061   169.9     9.9    18.5
2024 01 08    07 56 04.5 +14 51 08   0.02427 1.0071   167.3    12.4    18.7
...
2024 01 14    08 22 39.9 -26 26 07   0.04732 1.0152   130.9    47.0    21.2
...
2024 01 22    08 34 01.3 -39 24 43   0.08893 1.0320   120.5    55.3    22.9
...
2024 02 06    08 41 04.5 -43 52 28   0.1693  1.0799   119.7    52.5    24.3

M. P. C. Staff               (C) Copyright 2024 MPC           M.P.E.C. 2024-A63





More information about the Iaude mailing list